Tracking 29487 objects as of 11-Sep-2024
HD Live streaming from Space Station
objects crossing your sky now

STARLINK-5109

Track STARLINK-5109 now!
10-day predictions
STARLINK-5109 is classified as:


NORAD ID: 54002
Int'l Code: 2022-125AQ
Perigee: 546.0 km
Apogee: 547.7 km
Inclination: 53.2 °
Period: 95.4 minutes
Semi major axis: 6917 km
RCS: Unknown
Launch date: October 5, 2022
Source: United States (US)
Launch site: AIR FORCE WESTERN TEST RANGE (AFWTR)
Your satellite tracking list
Your tracking list is empty




NASA's NSSDC Master Catalog

Two Line Element Set (TLE):
1 54002U 22125AQ  24255.04232962  .00001306  00000-0  10011-3 0  9995
2 54002  53.2138 128.8735 0001210  80.1285 279.9844 15.08840806107435
Source of the keplerian elements: AFSPC